Precipitable_Water
0.57 0.56 0.54 0.54 0.53 0.52 0.50 0.48 0.49 0.47 0.47 0.46 0.44 0.46 0.47 0.49 0.51 0.50 0.50 0.49 0.47 0.47 0.48 0.48 0.47 0.45 0.44 0.45 0.46 0.45 0.44 0.45 0.45 0.45 0.42 0.41 0.40 0.41 0.43 0.45 0.48 0.51
0.58 0.58 0.57 0.57 0.56 0.55 0.53 0.52 0.51 0.50 0.49 0.48 0.48 0.50 0.50 0.49 0.50 0.49 0.47 0.46 0.47 0.48 0.48 0.47 0.46 0.46 0.46 0.46 0.46 0.45 0.44 0.44 0.42 0.45 0.44 0.42 0.41 0.41 0.41 0.43 0.46 0.49
0.61 0.60 0.58 0.56 0.54 0.54 0.54 0.55 0.55 0.54 0.53 0.52 0.54 0.54 0.52 0.51 0.49 0.49 0.49 0.48 0.47 0.46 0.46 0.46 0.47 0.47 0.48 0.48 0.48 0.47 0.46 0.45 0.44 0.44 0.43 0.43 0.45 0.43 0.42 0.42 0.41 0.42
0.62 0.61 0.59 0.58 0.57 0.55 0.56 0.55 0.56 0.57 0.57 0.55 0.55 0.56 0.55 0.54 0.52 0.49 0.48 0.49 0.47 0.46 0.47 0.46 0.46 0.48 0.49 0.49 0.48 0.46 0.45 0.45 0.46 0.47 0.44 0.43 0.44 0.45 0.45 0.44 0.42 0.41
0.62 0.62 0.61 0.60 0.59 0.58 0.57 0.55 0.55 0.56 0.55 0.56 0.57 0.57 0.55 0.53 0.50 0.49 0.49 0.49 0.48 0.46 0.45 0.46 0.48 0.50 0.50 0.49 0.47 0.45 0.44 0.43 0.44 0.45 0.44 0.43 0.44 0.45 0.45 0.45 0.43 0.41
0.65 0.65 0.64 0.61 0.60 0.58 0.56 0.55 0.55 0.56 0.56 0.56 0.57 0.57 0.54 0.51 0.50 0.50 0.51 0.48 0.46 0.45 0.46 0.48 0.49 0.50 0.49 0.47 0.46 0.44 0.43 0.43 0.43 0.44 0.42 0.42 0.43 0.45 0.44 0.45 0.44 0.43
0.64 0.65 0.63 0.63 0.62 0.60 0.57 0.56 0.56 0.57 0.57 0.58 0.59 0.56 0.53 0.51 0.50 0.51 0.49 0.47 0.45 0.46 0.47 0.48 0.48 0.48 0.48 0.46 0.44 0.42 0.42 0.43 0.44 0.43 0.41 0.41 0.42 0.42 0.45 0.44 0.44 0.44
0.66 0.67 0.66 0.65 0.62 0.59 0.57 0.57 0.58 0.58 0.59 0.60 0.57 0.56 0.54 0.51 0.51 0.51 0.49 0.47 0.46 0.47 0.49 0.49 0.48 0.46 0.45 0.43 0.41 0.40 0.41 0.43 0.42 0.42 0.41 0.41 0.41 0.40 0.42 0.45 0.45 0.43
0.69 0.67 0.67 0.65 0.62 0.59 0.57 0.58 0.60 0.61 0.62 0.60 0.58 0.55 0.54 0.52 0.51 0.50 0.48 0.48 0.48 0.49 0.50 0.48 0.46 0.44 0.43 0.42 0.41 0.40 0.40 0.41 0.42 0.41 0.40 0.39 0.39 0.40 0.41 0.43 0.43 0.43
0.69 0.68 0.68 0.65 0.61 0.59 0.58 0.59 0.60 0.61 0.62 0.60 0.58 0.56 0.54 0.53 0.52 0.49 0.49 0.49 0.49 0.49 0.48 0.46 0.44 0.43 0.42 0.42 0.41 0.41 0.40 0.39 0.40 0.40 0.40 0.40 0.39 0.40 0.41 0.42 0.43 0.42
0.68 0.68 0.67 0.64 0.61 0.60 0.60 0.60 0.61 0.61 0.61 0.59 0.58 0.56 0.54 0.52 0.51 0.51 0.51 0.51 0.49 0.48 0.45 0.44 0.43 0.42 0.40 0.40 0.40 0.41 0.41 0.40 0.40 0.40 0.41 0.41 0.41 0.41 0.42 0.42 0.42 0.42
0.68 0.68 0.67 0.63 0.60 0.60 0.61 0.61 0.62 0.61 0.61 0.60 0.59 0.55 0.53 0.52 0.50 0.51 0.52 0.50 0.48 0.46 0.44 0.43 0.42 0.40 0.39 0.39 0.40 0.41 0.41 0.40 0.40 0.40 0.40 0.41 0.41 0.42 0.42 0.43 0.43 0.44
0.71 0.70 0.68 0.65 0.63 0.63 0.64 0.63 0.63 0.63 0.62 0.60 0.59 0.55 0.52 0.50 0.51 0.51 0.51 0.48 0.46 0.45 0.43 0.42 0.40 0.39 0.39 0.39 0.40 0.40 0.39 0.38 0.37 0.37 0.38 0.40 0.41 0.41 0.42 0.43 0.43 0.43
0.78 0.77 0.73 0.70 0.68 0.68 0.66 0.65 0.65 0.64 0.62 0.61 0.59 0.54 0.50 0.50 0.50 0.49 0.49 0.47 0.45 0.44 0.42 0.41 0.39 0.39 0.38 0.38 0.38 0.37 0.35 0.34 0.32 0.30 0.29 0.30 0.34 0.38 0.41 0.41 0.42 0.42
0.83 0.82 0.76 0.72 0.72 0.70 0.68 0.67 0.66 0.65 0.63 0.61 0.56 0.53 0.51 0.51 0.51 0.49 0.47 0.45 0.44 0.42 0.41 0.41 0.39 0.38 0.38 0.37 0.35 0.34 0.34 0.32 0.31 0.30 0.29 0.29 0.30 0.32 0.35 0.38 0.40 0.41
0.84 0.81 0.75 0.74 0.72 0.70 0.69 0.69 0.67 0.66 0.63 0.58 0.54 0.52 0.51 0.50 0.49 0.48 0.46 0.44 0.42 0.41 0.40 0.39 0.38 0.38 0.37 0.36 0.35 0.34 0.33 0.32 0.31 0.30 0.30 0.31 0.31 0.32 0.33 0.34 0.36 0.38
0.84 0.80 0.77 0.73 0.71 0.70 0.70 0.69 0.67 0.65 0.61 0.57 0.53 0.51 0.50 0.50 0.49 0.46 0.45 0.44 0.41 0.39 0.38 0.38 0.38 0.37 0.36 0.35 0.35 0.34 0.33 0.32 0.31 0.32 0.33 0.33 0.33 0.33 0.32 0.33 0.35 0.37
0.82 0.81 0.78 0.74 0.72 0.70 0.70 0.69 0.67 0.63 0.59 0.54 0.51 0.50 0.50 0.50 0.47 0.46 0.45 0.43 0.40 0.39 0.38 0.37 0.37 0.37 0.36 0.35 0.35 0.34 0.33 0.32 0.33 0.33 0.34 0.34 0.34 0.34 0.35 0.35 0.35 0.36
0.83 0.84 0.82 0.77 0.74 0.72 0.71 0.68 0.64 0.60 0.54 0.51 0.50 0.51 0.50 0.48 0.46 0.45 0.43 0.42 0.40 0.38 0.37 0.37 0.36 0.36 0.36 0.35 0.34 0.33 0.33 0.34 0.35 0.35 0.35 0.35 0.35 0.36 0.36 0.36 0.36 0.36
0.82 0.84 0.80 0.77 0.75 0.73 0.71 0.67 0.60 0.54 0.53 0.53 0.52 0.51 0.48 0.47 0.46 0.44 0.43 0.41 0.39 0.38 0.36 0.36 0.35 0.36 0.35 0.34 0.33 0.33 0.34 0.35 0.36 0.36 0.36 0.36 0.36 0.37 0.37 0.37 0.37 0.37
0.81 0.82 0.76 0.75 0.74 0.72 0.68 0.62 0.57 0.55 0.54 0.52 0.50 0.48 0.47 0.46 0.44 0.42 0.41 0.40 0.38 0.37 0.36 0.34 0.33 0.32 0.31 0.32 0.32 0.34 0.35 0.36 0.36 0.36 0.36 0.37 0.37 0.38 0.39 0.39 0.39 0.39
0.76 0.78 0.75 0.73 0.71 0.68 0.63 0.59 0.55 0.52 0.50 0.50 0.48 0.47 0.47 0.46 0.44 0.42 0.40 0.38 0.35 0.32 0.29 0.27 0.27 0.28 0.29 0.31 0.33 0.34 0.35 0.36 0.36 0.36 0.36 0.36 0.37 0.39 0.40 0.41 0.41 0.41
0.76 0.73 0.69 0.67 0.65 0.61 0.58 0.54 0.51 0.50 0.49 0.49 0.47 0.46 0.45 0.43 0.42 0.39 0.34 0.30 0.27 0.26 0.24 0.23 0.24 0.26 0.29 0.31 0.33 0.34 0.35 0.35 0.35 0.35 0.35 0.36 0.37 0.38 0.40 0.40 0.41 0.41
0.76 0.73 0.69 0.64 0.61 0.58 0.55 0.52 0.52 0.51 0.50 0.49 0.46 0.43 0.40 0.37 0.35 0.32 0.30 0.28 0.25 0.22 0.23 0.23 0.24 0.27 0.29 0.32 0.34 0.35 0.36 0.35 0.35 0.35 0.35 0.35 0.36 0.38 0.39 0.39 0.39 0.40
0.69 0.66 0.66 0.63 0.60 0.57 0.54 0.52 0.51 0.50 0.48 0.45 0.39 0.36 0.34 0.34 0.34 0.30 0.27 0.23 0.22 0.23 0.25 0.24 0.25 0.27 0.30 0.32 0.33 0.35 0.36 0.36 0.36 0.35 0.35 0.35 0.36 0.36 0.38 0.38 0.38 0.39
0.65 0.63 0.63 0.61 0.58 0.55 0.53 0.51 0.48 0.42 0.38 0.37 0.37 0.37 0.35 0.34 0.32 0.29 0.25 0.24 0.24 0.24 0.24 0.24 0.25 0.27 0.30 0.32 0.33 0.34 0.36 0.36 0.36 0.35 0.34 0.35 0.36 0.35 0.35 0.36 0.37 0.37
Wind_Speed
19 19 19 18 18 18 17 18 18 17 18 17 17 17 17 17 17 17 17 17 18 18 18 18 19 19 19 20 20 20 20 21 22 23 23 24 24 25 26 27 27 27
20 20 19 19 19 18 18 18 18 18 18 18 18 18 18 18 18 18 18 18 18 19 19 20 20 20 20 21 21 21 21 22 23 23 24 24 25 25 26 27 28 28
21 20 20 20 19 19 19 19 19 19 19 19 19 19 19 19 19 19 19 19 20 20 20 21 21 21 21 22 22 22 23 23 23 24 25 25 26 26 27 27 28 29
21 21 21 20 20 20 20 20 20 20 20 20 20 20 20 20 20 20 20 21 21 21 22 22 22 22 22 23 23 23 23 24 24 25 25 26 27 27 27 28 28 29
22 22 21 21 21 21 20 21 21 21 21 21 21 21 21 21 21 21 21 22 22 22 23 23 23 23 23 24 24 24 24 25 25 26 26 27 27 28 28 28 29 29
23 23 22 22 21 21 21 21 22 22 22 22 22 22 22 22 22 22 23 23 23 23 24 24 24 24 25 25 25 25 26 26 26 27 27 28 28 29 29 30 30 30
23 23 23 23 22 22 22 22 22 22 23 23 23 23 23 23 23 23 24 24 24 24 25 25 25 25 26 26 27 27 27 28 28 28 29 29 30 30 31 31 31 31
23 23 23 23 23 23 23 23 23 23 23 23 23 23 23 23 24 24 24 25 25 25 25 26 26 27 27 28 28 29 29 29 30 30 31 31 31 32 32 32 33 33
24 24 24 24 24 23 23 23 23 24 24 24 24 24 24 24 25 25 25 26 26 26 26 26 27 28 29 29 30 30 30 31 31 32 32 33 33 33 34 34 34 34
24 25 25 24 24 24 24 24 24 24 25 25 25 25 25 25 26 26 26 26 26 27 27 27 28 29 30 30 31 31 32 32 33 33 34 34 34 35 35 36 36 36
25 25 25 25 25 25 24 24 24 25 25 25 25 26 26 26 27 27 27 27 27 27 27 28 29 30 31 31 32 32 33 33 34 34 35 35 36 36 36 37 37 38
25 26 26 26 26 25 25 25 25 25 25 26 26 26 26 27 27 27 27 27 27 28 28 29 30 31 31 32 32 33 33 34 35 36 36 37 37 37 37 38 38 38
27 27 28 28 27 27 26 26 26 26 26 26 26 26 26 27 27 27 27 27 28 28 29 29 30 31 31 32 33 34 35 36 36 37 38 39 39 39 39 39 40 40
29 28 28 28 28 28 27 27 26 26 26 26 26 26 26 27 27 27 27 27 28 28 29 30 30 31 32 33 34 35 36 37 38 39 39 40 41 41 41 42 42 42
30 30 29 29 29 28 28 27 27 27 27 27 26 26 27 27 27 26 27 27 28 28 29 30 31 32 33 34 35 36 37 38 39 40 40 41 41 41 42 43 43 44
32 31 30 30 29 29 29 28 28 28 28 27 27 27 27 27 27 27 27 28 28 29 29 30 31 33 34 35 36 37 38 39 40 40 41 41 41 42 42 43 44 44
33 32 32 31 30 30 30 29 29 29 28 28 28 28 28 28 28 28 28 29 29 29 30 31 32 33 35 36 37 38 39 40 40 41 41 41 42 42 43 43 44 44
34 33 32 31 30 30 30 29 29 29 29 29 29 29 28 28 28 28 29 29 30 31 32 33 34 35 36 37 39 40 40 41 41 41 42 42 42 43 43 43 44 44
35 34 32 31 30 29 29 29 29 29 29 29 29 28 28 28 28 29 29 30 31 32 33 34 35 36 38 39 40 41 41 42 42 42 42 43 43 43 44 44 44 44
35 34 33 32 30 29 28 29 29 29 29 28 28 28 28 28 28 29 29 30 31 33 34 35 36 38 39 40 41 42 42 43 43 43 43 44 44 44 44 44 44 44
35 34 33 32 30 29 29 29 29 28 27 27 27 27 28 28 28 29 30 31 32 33 34 36 37 39 40 41 42 43 43 44 44 44 44 44 44 44 44 44 44 44
34 33 32 31 30 29 29 28 27 26 26 26 26 27 27 28 29 30 30 32 33 34 35 36 38 39 40 41 42 43 44 44 44 44 44 44 44 43 43 43 43 44
34 32 31 30 29 28 28 27 25 25 25 26 26 27 28 29 29 30 31 32 33 35 36 37 38 39 40 42 43 43 44 44 44 44 44 44 43 43 43 43 44 44
31 30 29 28 28 27 27 26 25 25 25 26 26 27 28 29 29 30 32 33 34 35 36 37 39 40 41 43 43 44 44 44 44 44 44 44 44 43 44 44 44 45
30 28 27 27 26 26 26 25 25 25 25 26 26 27 27 28 29 31 32 33 34 35 36 38 40 41 42 44 44 45 45 45 45 45 44 44 44 44 44 45 45 45
29 28 27 25 25 25 25 25 25 24 25 25 26 27 27 29 30 31 32 33 34 35 37 39 41 42 43 44 44 45 45 45 44 44 44 44 44 45 45 45 45 45
Wind_Direction
251 253 255 256 257 258 258 258 258 258 259 259 259 259 259 259 259 260 261 263 264 266 267 268 269 270 270 270 271 270 269 267 266 264 264 263 262 262 261 261 261 261
251 253 255 256 257 258 258 258 258 259 259 260 260 260 260 260 261 262 263 265 266 267 268 269 269 269 270 270 271 271 270 270 268 267 266 265 264 263 262 262 262 262
251 253 254 255 256 257 257 258 259 259 260 261 261 261 261 262 263 264 265 266 268 269 270 270 271 271 271 272 272 272 271 271 270 269 268 266 266 265 264 264 263 263
250 252 254 256 257 257 258 258 259 259 260 260 261 262 262 263 265 266 267 268 270 271 272 272 272 272 272 273 273 274 273 272 271 270 269 268 267 266 265 265 265 265
251 253 255 256 257 258 259 259 259 260 260 261 261 262 263 264 266 267 268 269 270 271 272 273 273 273 274 274 274 274 274 273 272 271 270 270 269 268 267 267 266 266
252 254 255 256 257 259 259 260 260 260 261 261 262 263 264 265 267 268 269 270 271 271 272 273 274 274 274 274 274 274 274 273 273 272 272 271 271 270 269 269 268 267
252 254 254 255 257 258 259 260 261 261 261 262 263 264 265 267 268 269 270 271 272 272 273 274 274 275 275 274 275 275 274 273 272 272 272 272 272 271 270 270 269 269
252 254 254 255 256 258 259 260 260 261 262 263 263 265 266 267 269 270 272 272 273 274 274 275 275 276 276 276 275 275 274 273 272 272 272 273 272 271 270 269 269 269
253 254 254 255 256 258 259 260 261 261 262 263 264 266 267 269 270 272 273 273 274 275 276 276 276 277 277 276 276 275 274 274 273 273 273 273 273 272 270 269 269 268
254 254 254 255 257 259 260 261 262 262 263 264 265 266 268 270 271 272 273 274 275 276 276 277 277 277 277 277 276 275 275 275 275 275 274 274 273 272 271 270 269 268
254 255 255 256 258 259 260 261 262 263 264 265 266 268 270 271 272 273 273 274 275 276 276 277 277 278 278 277 277 276 276 276 276 276 275 274 273 272 272 271 270 269
254 256 256 257 259 260 261 262 263 264 265 266 268 270 271 272 273 273 274 275 275 276 277 278 278 279 278 278 278 278 278 278 278 278 277 276 275 273 272 271 270 269
254 257 258 259 260 261 262 263 264 265 266 268 269 270 271 272 273 274 275 276 276 277 278 279 279 280 280 280 280 280 281 280 280 279 278 277 275 274 273 271 270 269
255 258 259 259 260 261 262 263 264 266 267 269 270 271 272 272 273 274 275 276 278 279 280 280 281 281 282 282 282 283 283 282 282 281 280 278 276 274 273 272 270 269
255 257 258 258 259 260 261 261 263 265 267 268 269 270 271 272 272 273 275 277 279 281 281 281 282 283 284 284 285 285 285 284 283 282 281 279 277 275 274 272 271 270
254 255 256 256 257 259 259 260 262 264 266 267 268 269 270 271 271 273 276 278 280 281 281 282 283 285 285 286 287 287 286 286 285 284 282 280 278 276 275 274 272 271
253 253 253 254 256 258 259 260 261 263 264 266 267 268 268 269 271 273 276 278 280 281 281 283 284 286 287 288 288 288 288 287 286 285 283 281 279 277 276 274 273 271
251 251 251 252 255 257 258 258 260 262 264 266 266 266 267 268 271 273 275 278 280 281 282 284 286 288 288 289 290 290 289 288 287 286 284 282 280 278 276 275 273 272
249 249 249 251 253 256 256 257 260 262 264 265 264 264 266 268 271 273 276 279 281 282 284 286 288 289 290 290 291 291 290 289 288 286 285 283 281 279 277 276 274 273
248 246 246 249 252 254 255 257 260 261 262 262 262 263 265 268 272 275 277 280 282 284 285 287 289 290 290 291 291 291 290 290 288 287 285 283 281 279 277 276 275 273
246 244 244 247 250 252 253 257 259 259 259 260 261 264 267 270 274 276 279 281 284 286 287 288 290 290 291 291 291 291 291 290 289 287 286 283 281 279 278 276 275 274
244 242 243 246 248 250 252 255 256 256 257 261 264 267 270 273 276 278 281 283 285 287 288 290 291 291 292 292 291 291 291 290 289 287 285 283 280 279 277 276 275 273
243 241 242 244 245 248 250 251 253 256 261 264 267 270 273 275 278 280 283 285 287 288 289 290 291 292 293 292 292 292 291 290 289 287 284 282 280 278 277 275 274 273
239 239 239 241 243 247 248 249 254 260 264 267 269 272 275 278 280 283 284 286 288 289 290 291 293 294 294 293 293 292 292 290 289 287 284 282 280 278 277 276 275 274
235 235 237 240 244 246 248 252 258 264 267 269 272 275 278 280 283 284 286 287 289 290 291 293 295 295 295 295 294 294 293 291 289 287 285 283 281 279 278 277 275 274
230 232 235 240 244 246 251 256 261 266 270 272 275 278 280 282 285 286 287 288 290 292 294 296 297 297 296 296 295 295 293 292 289 287 285 283 282 281 280 278 276 275